| time (UTC) | temp C | wind direction | speed KPH | gust KPH | rain 1hr cm | rain 24hr cm | rain mn cm | humidity % | barometer mb |
| 20260510072504 | 17 | 198 | 1.6 | 12.9 | 0.00 | 0.05 | 0.03 | 69 | 1027.5 |
| 20260510072004 | 17 | 199 | 0.0 | 9.7 | 0.00 | 0.05 | 0.03 | 69 | 1027.5 |
| 20260510071504 | 17 | 0 | 0.0 | 0.0 | 0.00 | 0.05 | 0.03 | 69 | 1027.5 |
| 20260510071004 | 17 | 0 | 0.0 | 0.0 | 0.00 | 0.05 | 0.03 | 69 | 1027.4 |
| 20260510070504 | 17 | 0 | 0.0 | 0.0 | 0.00 | 0.05 | 0.03 | 68 | 1027.5 |
| 20260510070004 | 17 | 0 | 0.0 | 0.0 | 0.00 | 0.05 | 0.03 | 68 | 1027.4 |
| 20260510065504 | 17 | 0 | 0.0 | 0.0 | 0.00 | 0.05 | 0.03 | 68 | 1027.4 |
| 20260510065004 | 17 | 0 | 0.0 | 0.0 | 0.00 | 0.05 | 0.03 | 68 | 1027.4 |
| 20260510064504 | 17 | 0 | 0.0 | 0.0 | 0.00 | 0.05 | 0.03 | 68 | 1027.4 |
| 20260510064004 | 17 | 0 | 0.0 | 0.0 | 0.00 | 0.05 | 0.03 | 67 | 1027.3 |
| 20260510063504 | 17 | 0 | 0.0 | 0.0 | 0.00 | 0.05 | 0.03 | 67 | 1027.3 |
| 20260510063025 | 17 | 0 | 0.0 | 0.0 | 0.00 | 0.05 | 0.03 | 66 | 1027.3 |
| 20260510062504 | 17 | 0 | 0.0 | 0.0 | 0.00 | 0.05 | 0.03 | 67 | 1027.3 |
| 20260510062004 | 17 | 0 | 0.0 | 0.0 | 0.00 | 0.05 | 0.03 | 68 | 1027.3 |
| 20260510061505 | 17 | 0 | 0.0 | 0.0 | 0.00 | 0.05 | 0.03 | 66 | 1027.3 |
| 20260510061025 | 17 | 0 | 0.0 | 0.0 | 0.00 | 0.05 | 0.03 | 67 | 1027.3 |
| 20260510060504 | 17 | 0 | 0.0 | 0.0 | 0.00 | 0.05 | 0.03 | 67 | 1027.3 |
| 20260510060004 | 17 | 0 | 0.0 | 0.0 | 0.00 | 0.05 | 0.03 | 67 | 1027.2 |
| 20260510055504 | 17 | 0 | 0.0 | 8.0 | 0.00 | 0.05 | 0.03 | 66 | 1027.3 |
| 20260510055004 | 17 | 225 | 1.6 | 8.0 | 0.00 | 0.05 | 0.03 | 66 | 1027.3 |
| 20260510054504 | 17 | 217 | 3.2 | 8.0 | 0.00 | 0.05 | 0.03 | 66 | 1027.4 |
| 20260510054025 | 17 | 244 | 4.8 | 12.9 | 0.00 | 0.05 | 0.03 | 66 | 1027.3 |
| 20260510053504 | 17 | 275 | 3.2 | 12.9 | 0.00 | 0.05 | 0.03 | 66 | 1027.3 |
| 20260510053004 | 18 | 298 | 1.6 | 8.0 | 0.00 | 0.05 | 0.03 | 65 | 1027.3 |
| 20260510052524 | 18 | 319 | 0.0 | 8.0 | 0.00 | 0.05 | 0.03 | 65 | 1027.3 |
| 20260510052004 | 18 | 0 | 0.0 | 0.0 | 0.00 | 0.05 | 0.03 | 65 | 1027.2 |
| 20260510051504 | 18 | 201 | 1.6 | 8.0 | 0.00 | 0.05 | 0.03 | 65 | 1027.3 |
| 20260510051004 | 18 | 112 | 1.6 | 8.0 | 0.00 | 0.05 | 0.03 | 66 | 1027.3 |
| 20260510050504 | 18 | 84 | 1.6 | 8.0 | 0.00 | 0.05 | 0.03 | 67 | 1027.3 |
| 20260510050004 | 18 | 111 | 1.6 | 8.0 | 0.00 | 0.05 | 0.03 | 66 | 1027.3 |
| 20260510045504 | 18 | 138 | 1.6 | 8.0 | 0.00 | 0.05 | 0.03 | 65 | 1027.3 |
| 20260510045004 | 18 | 138 | 0.0 | 8.0 | 0.00 | 0.05 | 0.03 | 65 | 1027.3 |
| 20260510044503 | 18 | 137 | 0.0 | 8.0 | 0.00 | 0.05 | 0.03 | 64 | 1027.3 |
| 20260510044004 | 18 | 138 | 0.0 | 4.8 | 0.00 | 0.05 | 0.03 | 65 | 1027.3 |
| 20260510043503 | 18 | 138 | 0.0 | 8.0 | 0.00 | 0.05 | 0.03 | 66 | 1027.3 |
| 20260510043025 | 17 | 138 | 1.6 | 8.0 | 0.00 | 0.05 | 0.03 | 65 | 1027.3 |
| 20260510042504 | 17 | 246 | 1.6 | 9.7 | 0.00 | 0.05 | 0.03 | 66 | 1027.3 |
| 20260510042004 | 17 | 248 | 1.6 | 9.7 | 0.00 | 0.05 | 0.03 | 66 | 1027.4 |
| 20260510041504 | 18 | 221 | 1.6 | 8.0 | 0.00 | 0.05 | 0.03 | 66 | 1027.4 |
| 20260510041004 | 18 | 222 | 1.6 | 8.0 | 0.00 | 0.05 | 0.03 | 66 | 1027.4 |
| 20260510040503 | 18 | 251 | 1.6 | 8.0 | 0.00 | 0.05 | 0.03 | 67 | 1027.4 |
| 20260510040004 | 18 | 125 | 1.6 | 4.8 | 0.00 | 0.05 | 0.03 | 66 | 1027.5 |
| 20260510035504 | 17 | 124 | 1.6 | 8.0 | 0.00 | 0.05 | 0.03 | 66 | 1027.5 |
| 20260510035004 | 17 | 124 | 0.0 | 8.0 | 0.00 | 0.05 | 0.03 | 67 | 1027.6 |
| 20260510034503 | 17 | 0 | 1.6 | 0.0 | 0.00 | 0.05 | 0.03 | 66 | 1027.7 |
| 20260510034003 | 17 | 220 | 3.2 | 4.8 | 0.00 | 0.05 | 0.03 | 66 | 1027.7 |
| 20260510033524 | 17 | 216 | 4.8 | 9.7 | 0.00 | 0.05 | 0.03 | 66 | 1027.8 |
| 20260510033003 | 17 | 227 | 3.2 | 9.7 | 0.00 | 0.05 | 0.03 | 65 | 1027.8 |
| 20260510032504 | 17 | 255 | 1.6 | 9.7 | 0.00 | 0.05 | 0.03 | 66 | 1027.9 |
| 20260510032004 | 17 | 289 | 1.6 | 6.4 | 0.00 | 0.05 | 0.03 | 65 | 1027.9 |
| 20260510031504 | 17 | 285 | 1.6 | 6.4 | 0.00 | 0.05 | 0.03 | 65 | 1027.8 |
| 20260510031004 | 17 | 310 | 1.6 | 9.7 | 0.00 | 0.05 | 0.03 | 66 | 1027.9 |
| 20260510030504 | 17 | 309 | 1.6 | 9.7 | 0.00 | 0.05 | 0.03 | 65 | 1028.0 |
| 20260510030004 | 17 | 333 | 3.2 | 8.0 | 0.00 | 0.05 | 0.03 | 65 | 1028.1 |
| 20260510025503 | 17 | 340 | 3.2 | 8.0 | 0.00 | 0.05 | 0.03 | 66 | 1028.1 |
| 20260510025004 | 18 | 26 | 1.6 | 9.7 | 0.00 | 0.05 | 0.03 | 64 | 1028.2 |
| 20260510024525 | 18 | 39 | 1.6 | 9.7 | 0.00 | 0.05 | 0.03 | 66 | 1028.2 |
| 20260510024024 | 17 | 312 | 1.6 | 8.0 | 0.00 | 0.05 | 0.03 | 66 | 1028.3 |
| 20260510023525 | 17 | 292 | 0.0 | 8.0 | 0.00 | 0.05 | 0.03 | 66 | 1028.4 |
| 20260510023004 | 17 | 334 | 0.0 | 6.4 | 0.00 | 0.05 | 0.03 | 65 | 1028.5 |
| 20260510022504 | 17 | 0 | 0.0 | 0.0 | 0.00 | 0.05 | 0.03 | 67 | 1028.6 |
| 20260510022004 | 17 | 0 | 0.0 | 0.0 | 0.00 | 0.05 | 0.03 | 66 | 1028.7 |
| 20260510021503 | 17 | 0 | 0.0 | 0.0 | 0.00 | 0.05 | 0.03 | 67 | 1028.7 |
| 20260510021024 | 17 | 219 | 0.0 | 4.8 | 0.00 | 0.05 | 0.03 | 67 | 1028.8 |
| 20260510020504 | 17 | 207 | 0.0 | 4.8 | 0.00 | 0.05 | 0.03 | 67 | 1028.8 |
| 20260510020004 | 17 | 179 | 0.0 | 6.4 | 0.00 | 0.05 | 0.03 | 67 | 1028.9 |
| 20260510015504 | 17 | 90 | 0.0 | 8.0 | 0.00 | 0.05 | 0.03 | 66 | 1028.9 |
| 20260510015025 | 17 | 117 | 0.0 | 8.0 | 0.00 | 0.05 | 0.03 | 67 | 1029.0 |
| 20260510014503 | 17 | 143 | 0.0 | 4.8 | 0.00 | 0.05 | 0.03 | 67 | 1029.1 |
| 20260510014025 | 17 | 0 | 0.0 | 0.0 | 0.00 | 0.05 | 0.03 | 67 | 1029.1 |
| 20260510013504 | 17 | 143 | 0.0 | 1.6 | 0.00 | 0.05 | 0.03 | 67 | 1029.1 |
| 20260510013025 | 17 | 157 | 0.0 | 4.8 | 0.00 | 0.05 | 0.03 | 67 | 1029.1 |
| 20260510012504 | 17 | 179 | 0.0 | 4.8 | 0.00 | 0.05 | 0.03 | 67 | 1029.1 |
| 20260510012004 | 17 | 204 | 0.0 | 4.8 | 0.00 | 0.05 | 0.03 | 69 | 1029.1 |
| 20260510011504 | 16 | 204 | 1.6 | 6.4 | 0.00 | 0.05 | 0.03 | 70 | 1029.1 |
| 20260510011003 | 16 | 204 | 0.0 | 8.0 | 0.00 | 0.05 | 0.03 | 70 | 1029.2 |
| 20260510010504 | 16 | 204 | 8.0 | 8.0 | 0.00 | 0.05 | 0.03 | 70 | 1029.1 |
| 20260510010004 | 16 | 204 | 0.0 | 4.8 | 0.00 | 0.05 | 0.03 | 72 | 1029.2 |
| 20260510005504 | 16 | 204 | 0.0 | 4.8 | 0.00 | 0.05 | 0.03 | 72 | 1029.2 |
| 20260510005004 | 16 | 200 | 0.0 | 8.0 | 0.00 | 0.05 | 0.03 | 72 | 1029.2 |
| 20260510004503 | 16 | 194 | 0.0 | 8.0 | 0.00 | 0.05 | 0.03 | 72 | 1029.2 |
| 20260510004003 | 16 | 127 | 0.0 | 4.8 | 0.00 | 0.05 | 0.03 | 73 | 1029.2 |
| 20260510003503 | 16 | 127 | 0.0 | 4.8 | 0.00 | 0.05 | 0.03 | 73 | 1029.2 |
| 20260510003004 | 16 | 127 | 0.0 | 1.6 | 0.00 | 0.05 | 0.03 | 74 | 1029.2 |
| 20260510002525 | 15 | 127 | 1.6 | 4.8 | 0.00 | 0.05 | 0.03 | 75 | 1029.2 |
| 20260510002004 | 15 | 119 | 1.6 | 4.8 | 0.00 | 0.05 | 0.03 | 75 | 1029.3 |
| 20260510001504 | 15 | 110 | 0.0 | 6.4 | 0.00 | 0.05 | 0.03 | 75 | 1029.2 |
| 20260510001003 | 15 | 112 | 1.6 | 8.0 | 0.00 | 0.05 | 0.03 | 76 | 1029.2 |
| 20260510000503 | 15 | 119 | 1.6 | 8.0 | 0.00 | 0.05 | 0.03 | 77 | 1029.3 |
| 20260510000024 | 15 | 116 | 1.6 | 4.8 | 0.00 | 0.05 | 0.03 | 77 | 1029.3 |
| 20260509235504 | 15 | 109 | 1.6 | 8.0 | 0.00 | 0.05 | 0.03 | 78 | 1029.3 |
| 20260509235003 | 15 | 104 | 4.8 | 8.0 | 0.00 | 0.05 | 0.03 | 78 | 1029.3 |
| 20260509234503 | 15 | 96 | 8.0 | 14.5 | 0.00 | 0.05 | 0.03 | 79 | 1029.3 |
| 20260509234003 | 15 | 95 | 9.7 | 14.5 | 0.00 | 0.05 | 0.03 | 79 | 1029.3 |
| 20260509233503 | 15 | 101 | 11.3 | 14.5 | 0.00 | 0.05 | 0.03 | 79 | 1029.3 |
| 20260509233004 | 15 | 101 | 11.3 | 20.9 | 0.00 | 0.05 | 0.03 | 79 | 1029.2 |
| 20260509232503 | 14 | 95 | 9.7 | 20.9 | 0.00 | 0.05 | 0.03 | 81 | 1029.2 |
| 20260509232004 | 14 | 90 | 6.4 | 16.1 | 0.00 | 0.05 | 0.03 | 84 | 1029.2 |
| 20260509231503 | 14 | 93 | 4.8 | 16.1 | 0.00 | 0.05 | 0.03 | 86 | 1029.1 |
| 20260509231003 | 13 | 109 | 4.8 | 12.9 | 0.00 | 0.05 | 0.03 | 88 | 1029.1 |
| 20260509230503 | 13 | 115 | 6.4 | 12.9 | 0.00 | 0.05 | 0.03 | 90 | 1029.1 |
| 20260509230024 | 13 | 98 | 4.8 | 14.5 | 0.00 | 0.05 | 0.03 | 90 | 1029.1 |
| 20260509225503 | 13 | 88 | 1.6 | 14.5 | 0.00 | 0.05 | 0.03 | 91 | 1029.1 |
| 20260509225024 | 13 | 88 | 0.0 | 9.7 | 0.00 | 0.05 | 0.03 | 91 | 1029.1 |
| 20260509224504 | 12 | 110 | 0.0 | 4.8 | 0.00 | 0.05 | 0.03 | 91 | 1029.1 |
| 20260509224004 | 12 | 109 | 0.0 | 4.8 | 0.00 | 0.05 | 0.03 | 91 | 1029.0 |
| 20260509223503 | 12 | 107 | 0.0 | 4.8 | 0.00 | 0.05 | 0.03 | 91 | 1029.0 |
| 20260509223024 | 12 | 107 | 0.0 | 4.8 | 0.00 | 0.05 | 0.03 | 91 | 1028.9 |
| 20260509222504 | 12 | 107 | 0.0 | 1.6 | 0.00 | 0.05 | 0.03 | 91 | 1029.0 |
| 20260509222004 | 12 | 0 | 0.0 | 0.0 | 0.00 | 0.05 | 0.03 | 91 | 1028.9 |
| 20260509221503 | 12 | 16 | 0.0 | 4.8 | 0.00 | 0.05 | 0.03 | 91 | 1028.8 |
| 20260509221024 | 12 | 15 | 0.0 | 4.8 | 0.00 | 0.05 | 0.03 | 91 | 1028.7 |
| 20260509220504 | 12 | 317 | 0.0 | 1.6 | 0.00 | 0.05 | 0.03 | 91 | 1028.7 |
| 20260509220003 | 11 | 122 | 1.6 | 1.6 | 0.00 | 0.05 | 0.03 | 91 | 1028.7 |
| 20260509215504 | 11 | 122 | 1.6 | 8.0 | 0.00 | 0.05 | 0.03 | 91 | 1028.6 |
| 20260509215003 | 11 | 109 | 1.6 | 8.0 | 0.00 | 0.05 | 0.03 | 91 | 1028.4 |
| 20260509214504 | 11 | 56 | 0.0 | 6.4 | 0.00 | 0.05 | 0.03 | 91 | 1028.4 |
| 20260509214004 | 11 | 36 | 0.0 | 4.8 | 0.00 | 0.05 | 0.03 | 91 | 1028.3 |
| 20260509213504 | 11 | 0 | 0.0 | 0.0 | 0.00 | 0.05 | 0.03 | 91 | 1028.3 |
| 20260509213004 | 11 | 0 | 0.0 | 0.0 | 0.00 | 0.05 | 0.03 | 91 | 1028.2 |
| 20260509212504 | 11 | 0 | 0.0 | 0.0 | 0.00 | 0.05 | 0.03 | 91 | 1028.2 |
| 20260509212004 | 11 | 36 | 0.0 | 1.6 | 0.00 | 0.05 | 0.03 | 91 | 1028.2 |
| 20260509211504 | 11 | 36 | 0.0 | 1.6 | 0.00 | 0.05 | 0.03 | 91 | 1028.2 |
| 20260509211004 | 11 | 36 | 0.0 | 4.8 | 0.00 | 0.05 | 0.03 | 91 | 1028.2 |
| 20260509210504 | 11 | 36 | 0.0 | 4.8 | 0.00 | 0.05 | 0.03 | 91 | 1028.1 |
| 20260509210004 | 11 | 36 | 1.6 | 8.0 | 0.00 | 0.05 | 0.03 | 91 | 1028.0 |
| 20260509205504 | 11 | 36 | 4.8 | 8.0 | 0.00 | 0.05 | 0.03 | 91 | 1028.0 |
| 20260509205004 | 11 | 18 | 6.4 | 12.9 | 0.00 | 0.05 | 0.03 | 91 | 1028.0 |
| 20260509204504 | 11 | 13 | 4.8 | 12.9 | 0.00 | 0.05 | 0.03 | 91 | 1027.9 |
| 20260509204004 | 11 | 17 | 4.8 | 9.7 | 0.00 | 0.05 | 0.03 | 91 | 1027.9 |
| 20260509203504 | 11 | 21 | 4.8 | 9.7 | 0.00 | 0.05 | 0.03 | 91 | 1027.9 |
| 20260509203004 | 11 | 22 | 4.8 | 9.7 | 0.03 | 0.05 | 0.03 | 91 | 1027.9 |
| 20260509202525 | 11 | 12 | 4.8 | 8.0 | 0.03 | 0.05 | 0.03 | 91 | 1027.8 |
| 20260509202004 | 11 | 15 | 4.8 | 12.9 | 0.03 | 0.05 | 0.03 | 91 | 1027.7 |
| 20260509201525 | 11 | 24 | 4.8 | 12.9 | 0.03 | 0.05 | 0.03 | 91 | 1027.7 |
| 20260509201004 | 11 | 31 | 1.6 | 12.9 | 0.03 | 0.05 | 0.03 | 91 | 1027.7 |
| 20260509200504 | 10 | 62 | 0.0 | 9.7 | 0.03 | 0.05 | 0.03 | 91 | 1027.6 |
| 20260509200004 | 10 | 84 | 0.0 | 4.8 | 0.03 | 0.05 | 0.03 | 91 | 1027.5 |
| 20260509195504 | 11 | 75 | 0.0 | 1.6 | 0.03 | 0.05 | 0.03 | 91 | 1027.5 |
| 20260509195004 | 11 | 75 | 1.6 | 4.8 | 0.03 | 0.05 | 0.03 | 91 | 1027.4 |
| 20260509194504 | 10 | 75 | 1.6 | 8.0 | 0.03 | 0.05 | 0.03 | 91 | 1027.4 |
| 20260509194004 | 10 | 77 | 1.6 | 8.0 | 0.03 | 0.05 | 0.03 | 91 | 1027.3 |
| 20260509193504 | 10 | 101 | 1.6 | 4.8 | 0.03 | 0.05 | 0.03 | 91 | 1027.3 |
| 20260509193025 | 10 | 105 | 0.0 | 4.8 | 0.00 | 0.03 | 0.00 | 91 | 1027.3 |
| 20260509192525 | 10 | 105 | 0.0 | 4.8 | 0.00 | 0.03 | 0.00 | 91 | 1027.2 |
| 20260509192004 | 10 | 66 | 0.0 | 1.6 | 0.00 | 0.03 | 0.00 | 91 | 1027.3 |
| 20260509191504 | 10 | 0 | 0.0 | 0.0 | 0.00 | 0.03 | 0.00 | 91 | 1027.3 |
| 20260509191004 | 10 | 101 | 1.6 | 4.8 | 0.00 | 0.03 | 0.00 | 91 | 1027.2 |
| 20260509190525 | 10 | 92 | 4.8 | 8.0 | 0.00 | 0.03 | 0.00 | 90 | 1027.1 |
| 20260509190004 | 10 | 90 | 6.4 | 9.7 | 0.00 | 0.03 | 0.00 | 90 | 1027.1 |
| 20260509185504 | 10 | 91 | 8.0 | 12.9 | 0.00 | 0.03 | 0.00 | 90 | 1027.0 |
| 20260509185025 | 10 | 89 | 8.0 | 12.9 | 0.00 | 0.03 | 0.00 | 90 | 1027.0 |
| 20260509184504 | 10 | 91 | 6.4 | 12.9 | 0.00 | 0.03 | 0.00 | 90 | 1027.0 |
| 20260509184004 | 10 | 93 | 3.2 | 12.9 | 0.00 | 0.03 | 0.00 | 90 | 1027.0 |
| 20260509183504 | 11 | 86 | 4.8 | 12.9 | 0.00 | 0.03 | 0.00 | 90 | 1027.0 |
| 20260509183004 | 10 | 88 | 8.0 | 12.9 | 0.00 | 0.03 | 0.00 | 90 | 1026.9 |
| 20260509182504 | 10 | 92 | 9.7 | 14.5 | 0.00 | 0.03 | 0.00 | 90 | 1026.9 |
| 20260509182004 | 11 | 100 | 9.7 | 14.5 | 0.00 | 0.03 | 0.00 | 90 | 1026.9 |
| 20260509181504 | 11 | 106 | 9.7 | 14.5 | 0.00 | 0.03 | 0.00 | 90 | 1026.8 |
| 20260509181004 | 11 | 107 | 11.3 | 14.5 | 0.00 | 0.03 | 0.00 | 90 | 1026.9 |
| 20260509180504 | 11 | 109 | 11.3 | 16.1 | 0.00 | 0.03 | 0.00 | 90 | 1026.9 |
| 20260509180025 | 11 | 109 | 11.3 | 16.1 | 0.00 | 0.03 | 0.00 | 89 | 1026.8 |
| 20260509175525 | 11 | 112 | 11.3 | 16.1 | 0.00 | 0.03 | 0.00 | 90 | 1026.9 |
| 20260509175025 | 11 | 113 | 9.7 | 16.1 | 0.00 | 0.03 | 0.00 | 89 | 1026.8 |
| 20260509174504 | 11 | 110 | 9.7 | 14.5 | 0.00 | 0.03 | 0.00 | 90 | 1026.8 |
| 20260509174004 | 11 | 109 | 11.3 | 16.1 | 0.00 | 0.03 | 0.00 | 90 | 1026.8 |
| 20260509173525 | 11 | 109 | 12.9 | 16.1 | 0.00 | 0.03 | 0.00 | 90 | 1026.8 |
| 20260509173025 | 11 | 109 | 12.9 | 16.1 | 0.00 | 0.03 | 0.00 | 90 | 1026.9 |
| 20260509172503 | 11 | 116 | 12.9 | 20.9 | 0.00 | 0.03 | 0.00 | 90 | 1026.9 |
| 20260509172004 | 11 | 117 | 11.3 | 20.9 | 0.00 | 0.03 | 0.00 | 90 | 1026.8 |
| 20260509171504 | 11 | 110 | 11.3 | 16.1 | 0.00 | 0.03 | 0.00 | 90 | 1026.8 |
| 20260509171004 | 11 | 110 | 9.7 | 16.1 | 0.00 | 0.03 | 0.00 | 90 | 1026.9 |
| 20260509170504 | 11 | 113 | 9.7 | 16.1 | 0.00 | 0.03 | 0.00 | 89 | 1026.8 |
| 20260509170004 | 11 | 113 | 9.7 | 16.1 | 0.00 | 0.03 | 0.00 | 89 | 1026.9 |
| 20260509165525 | 11 | 113 | 9.7 | 16.1 | 0.00 | 0.03 | 0.00 | 89 | 1026.9 |
| 20260509165004 | 11 | 112 | 9.7 | 16.1 | 0.00 | 0.03 | 0.00 | 90 | 1027.0 |
| 20260509164504 | 11 | 112 | 9.7 | 16.1 | 0.00 | 0.03 | 0.00 | 89 | 1026.9 |
| 20260509164003 | 11 | 109 | 9.7 | 17.7 | 0.00 | 0.03 | 0.00 | 89 | 1027.1 |
| 20260509163504 | 11 | 108 | 9.7 | 17.7 | 0.00 | 0.03 | 0.00 | 89 | 1027.0 |
| 20260509163004 | 11 | 110 | 9.7 | 14.5 | 0.00 | 0.03 | 0.00 | 89 | 1027.1 |
| 20260509162504 | 11 | 109 | 11.3 | 16.1 | 0.00 | 0.03 | 0.00 | 89 | 1027.1 |
| 20260509162004 | 11 | 112 | 12.9 | 16.1 | 0.00 | 0.03 | 0.00 | 89 | 1027.1 |
| 20260509161504 | 12 | 112 | 11.3 | 20.9 | 0.00 | 0.03 | 0.00 | 89 | 1027.2 |
| 20260509161004 | 12 | 109 | 11.3 | 20.9 | 0.00 | 0.03 | 0.00 | 89 | 1027.2 |
| 20260509160504 | 12 | 107 | 9.7 | 17.7 | 0.00 | 0.03 | 0.00 | 89 | 1027.2 |
| 20260509160004 | 12 | 107 | 9.7 | 16.1 | 0.00 | 0.03 | 0.00 | 89 | 1027.2 |
| 20260509155504 | 12 | 107 | 9.7 | 16.1 | 0.00 | 0.03 | 0.00 | 89 | 1027.3 |
| 20260509155025 | 12 | 107 | 9.7 | 16.1 | 0.00 | 0.03 | 0.00 | 89 | 1027.3 |
| 20260509154504 | 12 | 110 | 9.7 | 14.5 | 0.00 | 0.03 | 0.00 | 89 | 1027.3 |
| 20260509154003 | 11 | 110 | 9.7 | 16.1 | 0.00 | 0.03 | 0.00 | 89 | 1027.3 |
| 20260509153504 | 11 | 111 | 9.7 | 16.1 | 0.00 | 0.03 | 0.00 | 89 | 1027.3 |
| 20260509153004 | 11 | 116 | 9.7 | 16.1 | 0.00 | 0.03 | 0.00 | 89 | 1027.4 |
| 20260509152503 | 11 | 119 | 11.3 | 16.1 | 0.00 | 0.03 | 0.00 | 88 | 1027.4 |
| 20260509152004 | 11 | 113 | 11.3 | 16.1 | 0.00 | 0.03 | 0.00 | 89 | 1027.4 |
| 20260509151503 | 11 | 108 | 11.3 | 16.1 | 0.00 | 0.03 | 0.00 | 89 | 1027.4 |
| 20260509151004 | 11 | 107 | 9.7 | 16.1 | 0.00 | 0.05 | 0.00 | 89 | 1027.4 |
| 20260509150504 | 11 | 108 | 9.7 | 16.1 | 0.00 | 0.05 | 0.00 | 89 | 1027.4 |
| 20260509150004 | 11 | 109 | 9.7 | 16.1 | 0.00 | 0.05 | 0.00 | 89 | 1027.4 |
| 20260509145504 | 11 | 108 | 9.7 | 14.5 | 0.00 | 0.05 | 0.00 | 89 | 1027.5 |
| 20260509145004 | 11 | 107 | 9.7 | 14.5 | 0.00 | 0.05 | 0.00 | 89 | 1027.5 |
| 20260509144504 | 11 | 106 | 9.7 | 14.5 | 0.00 | 0.05 | 0.00 | 89 | 1027.5 |
| 20260509144004 | 11 | 106 | 9.7 | 16.1 | 0.00 | 0.05 | 0.00 | 89 | 1027.4 |
| 20260509143503 | 11 | 105 | 9.7 | 16.1 | 0.00 | 0.05 | 0.00 | 89 | 1027.5 |
| 20260509143005 | 11 | 104 | 9.7 | 16.1 | 0.00 | 0.05 | 0.00 | 89 | 1027.5 |
| 20260509142525 | 11 | 104 | 9.7 | 16.1 | 0.00 | 0.05 | 0.05 | 89 | 1027.5 |
| 20260509142004 | 11 | 104 | 9.7 | 16.1 | 0.00 | 0.05 | 0.05 | 89 | 1027.5 |
| 20260509141525 | 11 | 104 | 11.3 | 16.1 | 0.00 | 0.05 | 0.05 | 89 | 1027.5 |
| 20260509141004 | 11 | 105 | 11.3 | 16.1 | 0.00 | 0.05 | 0.05 | 89 | 1027.5 |
| 20260509140504 | 11 | 104 | 11.3 | 16.1 | 0.00 | 0.05 | 0.05 | 89 | 1027.5 |
| 20260509140004 | 11 | 103 | 11.3 | 16.1 | 0.00 | 0.05 | 0.05 | 89 | 1027.5 |
| 20260509135503 | 11 | 106 | 9.7 | 16.1 | 0.00 | 0.05 | 0.05 | 89 | 1027.6 |
| 20260509135004 | 12 | 107 | 9.7 | 16.1 | 0.00 | 0.05 | 0.05 | 89 | 1027.6 |
| 20260509134503 | 12 | 105 | 9.7 | 14.5 | 0.00 | 0.05 | 0.05 | 89 | 1027.6 |
| 20260509134003 | 12 | 102 | 11.3 | 16.1 | 0.00 | 0.05 | 0.05 | 89 | 1027.6 |
| 20260509133503 | 11 | 100 | 12.9 | 16.1 | 0.00 | 0.05 | 0.05 | 89 | 1027.6 |
| 20260509133025 | 11 | 103 | 12.9 | 16.1 | 0.00 | 0.05 | 0.05 | 89 | 1027.6 |
| 20260509132503 | 11 | 105 | 12.9 | 16.1 | 0.00 | 0.05 | 0.05 | 89 | 1027.6 |
| 20260509132004 | 11 | 105 | 11.3 | 17.7 | 0.03 | 0.05 | 0.05 | 89 | 1027.6 |
| 20260509131525 | 11 | 104 | 11.3 | 17.7 | 0.03 | 0.05 | 0.05 | 89 | 1027.7 |
| 20260509131004 | 11 | 104 | 9.7 | 16.1 | 0.03 | 0.05 | 0.05 | 89 | 1027.7 |
| 20260509130504 | 11 | 104 | 9.7 | 16.1 | 0.03 | 0.05 | 0.05 | 89 | 1027.7 |
| 20260509130004 | 11 | 105 | 9.7 | 16.1 | 0.03 | 0.05 | 0.05 | 88 | 1027.8 |
| 20260509125504 | 12 | 105 | 9.7 | 14.5 | 0.03 | 0.05 | 0.05 | 89 | 1027.8 |
| 20260509125003 | 12 | 106 | 9.7 | 14.5 | 0.03 | 0.05 | 0.05 | 89 | 1027.8 |
| 20260509124503 | 12 | 107 | 9.7 | 16.1 | 0.03 | 0.05 | 0.05 | 89 | 1027.8 |
| 20260509124004 | 12 | 106 | 11.3 | 16.1 | 0.03 | 0.05 | 0.05 | 89 | 1027.7 |
| 20260509123503 | 12 | 104 | 11.3 | 17.7 | 0.03 | 0.05 | 0.05 | 89 | 1027.7 |
| 20260509123003 | 12 | 103 | 11.3 | 17.7 | 0.03 | 0.05 | 0.05 | 89 | 1027.7 |
| 20260509122503 | 12 | 105 | 11.3 | 16.1 | 0.03 | 0.05 | 0.05 | 89 | 1027.7 |
| 20260509122024 | 12 | 103 | 11.3 | 16.1 | 0.00 | 0.03 | 0.03 | 89 | 1027.7 |
| 20260509121504 | 12 | 103 | 9.7 | 16.1 | 0.00 | 0.03 | 0.03 | 89 | 1027.8 |
| 20260509121003 | 12 | 107 | 9.7 | 16.1 | 0.00 | 0.03 | 0.03 | 89 | 1027.7 |
| 20260509120503 | 12 | 109 | 9.7 | 16.1 | 0.00 | 0.03 | 0.03 | 89 | 1027.6 |
| 20260509120003 | 12 | 105 | 9.7 | 16.1 | 0.00 | 0.03 | 0.03 | 89 | 1027.7 |
| 20260509115503 | 12 | 101 | 9.7 | 14.5 | 0.00 | 0.03 | 0.03 | 90 | 1027.6 |
| 20260509115004 | 12 | 97 | 9.7 | 14.5 | 0.00 | 0.03 | 0.03 | 90 | 1027.5 |
| 20260509114503 | 12 | 97 | 8.0 | 14.5 | 0.00 | 0.03 | 0.03 | 90 | 1027.6 |
| 20260509114004 | 12 | 107 | 9.7 | 16.1 | 0.00 | 0.03 | 0.03 | 90 | 1027.5 |
| 20260509113525 | 12 | 114 | 9.7 | 16.1 | 0.00 | 0.03 | 0.03 | 90 | 1027.6 |
| 20260509113003 | 12 | 118 | 9.7 | 16.1 | 0.00 | 0.03 | 0.03 | 90 | 1027.5 |
| 20260509112503 | 12 | 121 | 8.0 | 16.1 | 0.00 | 0.03 | 0.03 | 90 | 1027.5 |
| 20260509112004 | 12 | 118 | 8.0 | 16.1 | 0.00 | 0.03 | 0.03 | 90 | 1027.5 |
| 20260509111503 | 12 | 107 | 8.0 | 14.5 | 0.00 | 0.03 | 0.03 | 90 | 1027.6 |
| 20260509111003 | 12 | 107 | 8.0 | 12.9 | 0.00 | 0.03 | 0.03 | 90 | 1027.5 |
| 20260509110504 | 11 | 108 | 8.0 | 12.9 | 0.00 | 0.03 | 0.03 | 89 | 1027.6 |
| 20260509110003 | 11 | 105 | 6.4 | 12.9 | 0.00 | 0.03 | 0.03 | 89 | 1027.6 |
| 20260509105524 | 11 | 108 | 6.4 | 12.9 | 0.00 | 0.03 | 0.03 | 89 | 1027.7 |
| 20260509105024 | 11 | 107 | 4.8 | 12.9 | 0.00 | 0.03 | 0.03 | 89 | 1027.6 |
| 20260509104524 | 11 | 98 | 4.8 | 9.7 | 0.00 | 0.03 | 0.03 | 89 | 1027.6 |
| 20260509104003 | 11 | 90 | 4.8 | 9.7 | 0.00 | 0.03 | 0.03 | 89 | 1027.6 |
| 20260509103504 | 11 | 91 | 4.8 | 8.0 | 0.00 | 0.03 | 0.03 | 88 | 1027.6 |
| 20260509103003 | 11 | 95 | 6.4 | 8.0 | 0.00 | 0.03 | 0.03 | 88 | 1027.6 |
| 20260509102503 | 12 | 100 | 8.0 | 12.9 | 0.00 | 0.03 | 0.03 | 88 | 1027.6 |
| 20260509102024 | 12 | 98 | 9.7 | 14.5 | 0.00 | 0.03 | 0.03 | 88 | 1027.6 |
| 20260509101503 | 12 | 94 | 9.7 | 16.1 | 0.00 | 0.03 | 0.03 | 88 | 1027.5 |
| 20260509101003 | 12 | 93 | 9.7 | 16.1 | 0.00 | 0.03 | 0.03 | 88 | 1027.6 |
| 20260509100504 | 12 | 93 | 9.7 | 16.1 | 0.00 | 0.03 | 0.03 | 87 | 1027.6 |
| 20260509100024 | 12 | 95 | 9.7 | 14.5 | 0.00 | 0.03 | 0.03 | 87 | 1027.6 |
| 20260509095525 | 12 | 95 | 9.7 | 14.5 | 0.00 | 0.03 | 0.03 | 87 | 1027.6 |
| 20260509095003 | 12 | 94 | 9.7 | 14.5 | 0.00 | 0.03 | 0.03 | 87 | 1027.5 |
| 20260509094503 | 12 | 95 | 9.7 | 14.5 | 0.00 | 0.03 | 0.03 | 86 | 1027.5 |
| 20260509094004 | 13 | 97 | 8.0 | 12.9 | 0.00 | 0.03 | 0.03 | 86 | 1027.6 |
| 20260509093503 | 13 | 97 | 8.0 | 12.9 | 0.00 | 0.03 | 0.03 | 86 | 1027.5 |
| 20260509093003 | 13 | 97 | 8.0 | 12.9 | 0.00 | 0.03 | 0.03 | 86 | 1027.5 |
| 20260509092504 | 13 | 97 | 8.0 | 9.7 | 0.00 | 0.03 | 0.03 | 86 | 1027.5 |
| 20260509092004 | 13 | 99 | 6.4 | 9.7 | 0.00 | 0.03 | 0.03 | 86 | 1027.5 |
| 20260509091503 | 13 | 103 | 6.4 | 9.7 | 0.00 | 0.03 | 0.03 | 85 | 1027.5 |
| 20260509091004 | 13 | 106 | 6.4 | 9.7 | 0.00 | 0.03 | 0.03 | 85 | 1027.5 |
| 20260509090503 | 13 | 102 | 6.4 | 9.7 | 0.00 | 0.03 | 0.03 | 85 | 1027.5 |
| 20260509090004 | 13 | 106 | 4.8 | 9.7 | 0.00 | 0.03 | 0.03 | 84 | 1027.5 |
| 20260509085525 | 14 | 120 | 4.8 | 9.7 | 0.00 | 0.03 | 0.03 | 84 | 1027.5 |
| 20260509085004 | 14 | 127 | 3.2 | 8.0 | 0.00 | 0.03 | 0.03 | 84 | 1027.4 |
| 20260509084504 | 14 | 128 | 1.6 | 8.0 | 0.00 | 0.03 | 0.03 | 83 | 1027.4 |
| 20260509084004 | 15 | 128 | 0.0 | 8.0 | 0.00 | 0.03 | 0.03 | 83 | 1027.4 |
| 20260509083504 | 15 | 127 | 0.0 | 6.4 | 0.00 | 0.03 | 0.03 | 83 | 1027.3 |
| 20260509083004 | 15 | 124 | 0.0 | 4.8 | 0.00 | 0.03 | 0.03 | 83 | 1027.2 |
| 20260509082504 | 15 | 125 | 0.0 | 4.8 | 0.00 | 0.03 | 0.03 | 83 | 1027.2 |
| 20260509082025 | 16 | 119 | 0.0 | 4.8 | 0.00 | 0.03 | 0.03 | 84 | 1027.1 |
| 20260509081525 | 16 | 201 | 0.0 | 8.0 | 0.00 | 0.03 | 0.03 | 84 | 1027.0 |
| 20260509081004 | 16 | 203 | 3.2 | 8.0 | 0.00 | 0.03 | 0.03 | 84 | 1027.1 |
| 20260509080525 | 16 | 198 | 4.8 | 12.9 | 0.00 | 0.03 | 0.03 | 83 | 1027.0 |
| 20260509080004 | 16 | 200 | 6.4 | 12.9 | 0.00 | 0.03 | 0.03 | 83 | 1027.0 |
| 20260509075504 | 16 | 200 | 4.8 | 12.9 | 0.00 | 0.03 | 0.03 | 83 | 1027.0 |
| 20260509075004 | 16 | 203 | 4.8 | 14.5 | 0.00 | 0.03 | 0.03 | 83 | 1026.9 |
| 20260509074504 | 16 | 212 | 4.8 | 14.5 | 0.00 | 0.03 | 0.03 | 82 | 1027.0 |
| 20260509074004 | 16 | 210 | 6.4 | 12.9 | 0.00 | 0.03 | 0.03 | 82 | 1027.0 |
| 20260509073504 | 16 | 203 | 6.4 | 16.1 | 0.00 | 0.03 | 0.03 | 82 | 1027.0 |
| 20260509073025 | 16 | 201 | 6.4 | 16.1 | 0.00 | 0.03 | 0.03 | 81 | 1027.0 |